Location: Drocourt
(49.0571°N, 1.7669°E)
Time: 09:02:38
(UTC+00:00)

BlueWalker 3 - Pass Details

Date: 09 February 2023
Orbit: 497 x 515 km, 53.2° (Epoch: 22 March)

Event Time Altitude Azimuth Distance (km) Brightness Sun altitude
Rises 18:15:10 0° 294° (WNW) 2,603 6.6 -12.3°
Reaches altitude 10° 18:17:21 10° 295° (WNW) 1,720 5.6 -12.6°
Maximum altitude 18:21:15 90° 286° (WNW) 513 1.9 -13.2°
Enters shadow 18:23:59 19° 116° (ESE) 1,266 3.5 -13.7°
